[[{"header":{"parameterUnit":"m.s-1","parameterCategory":1,"la1":30.2991,"la2":30.254,"lo1":-89.0895,"lo2":-89.0444,"dy":0.0017,"dx":0.0017,"nx":28,"ny":28,"refTime":"2024-12-18T09:00:00:Z","depth":0,"parameterNumber":2,"parameterNumberName":"U-component_of_WINDS"},"data":[0,0,0,0,0,0,0,0,0,0,0,0,0,0,0,0,0,0,0,0,0,0,0,0,0,0,0,0,0,0,0,0,0,0,0,0,0,0,0,0,0,0,0,0,0,0,0,0,0,0,0,0,0,0,0,0,0,0,1.8935,1.8936,0,1.9054,1.9055,1.9056,1.9078,1.9077,1.9076,1.9075,1.9198,1.9203,1.9207,0,0,0,0,0,0,0,0,0,0,0,0,0,1.873,1.8734,1.8935,1.8936,1.8938,1.9053,1.9055,1.9057,1.9078,1.9077,1.9076,1.9074,1.9197,1.9202,1.9207,0,0,0,0,0,0,0,0,0,0,0,0,0,1.8831,1.8735,1.8934,1.8962,1.8966,1.9053,1.9055,1.9057,1.9078,1.9077,1.9075,1.9074,1.9195,1.9202,1.9208,1.9276,0,0,1.9227,1.923,0,0,0,0,0,0,0,0,1.8825,1.8838,1.8957,1.896,1.8965,1.9049,1.9028,1.9131,1.9079,1.9036,1.9075,1.9073,1.915,1.916,1.9186,1.9282,1.9287,1.9228,1.9231,1.9234,1.9236,0,0,0,0,0,0,0,1.8818,1.8833,1.8982,1.8958,1.8963,1.897,1.8983,1.9048,1.91,1.9039,1.9041,1.9055,1.9152,1.918,1.9189,1.9289,1.9227,1.9233,1.9237,1.9239,1.945,1.9452,0,0,0,0,0,0,1.8806,1.8827,1.8978,1.8985,1.889,1.8975,1.8989,1.9024,1.9099,1.9109,1.9056,1.9055,1.9169,1.9181,1.9193,1.9279,1.9234,1.924,1.9244,1.9448,1.945,1.9452,0,0,0,0,0,0,1.8801,1.8819,1.8973,1.8907,1.8927,1.898,1.9019,1.9027,1.9054,1.9112,1.9121,1.9074,1.9169,1.9184,1.9256,1.9284,1.9243,1.9249,1.9446,1.9449,1.9451,1.9451,0,0,0,0,0,0,1.8795,1.8817,1.8843,1.8907,1.8931,1.9033,1.902,1.903,1.9065,1.9065,1.9131,1.9141,1.9169,1.9246,1.9262,1.9292,1.9253,1.9444,1.9447,1.9451,1.9449,1.9454,1.9458,0,0,0,0,0,1.8788,1.8838,1.8844,1.8862,1.8963,1.9034,1.9047,1.9078,1.9067,1.9094,1.9131,1.9139,1.9278,1.9253,1.9271,1.9303,1.9442,1.9446,1.945,1.9447,1.9453,1.9458,0,0,0,0,0,0,1.8775,1.8847,1.8854,1.8926,1.8974,1.9037,1.9072,1.9083,1.9135,1.9133,1.917,1.9185,1.9255,1.9286,1.9257,1.9375,1.936,1.9368,1.9351,1.9357,1.9361,1.9352,1.9259,0,0,0,0,0,1.878,1.8831,1.8891,1.8949,1.8973,1.9018,1.905,1.907,1.9121,1.9142,1.9184,1.9234,1.929,1.9325,1.9379,1.9454,1.947,1.9486,1.949,1.9493,1.95,1.9544,1.9552,1.9466,1.9466,1.9466,0,0,1.8792,1.8838,1.8867,1.8948,1.8987,1.904,1.9035,1.9091,1.9131,1.915,1.922,1.9254,1.9312,1.9386,1.9421,1.9415,1.9527,1.9499,1.9501,1.9505,1.9549,1.9557,1.9564,1.9469,1.9468,1.9468,0,0,1.8841,1.888,1.8933,1.8973,1.9033,1.9063,1.9076,1.9139,1.9162,1.9233,1.9249,1.9298,1.9392,1.9434,1.9467,1.9535,1.9545,1.9552,1.9574,1.9617,1.9623,1.963,1.9655,1.9663,1.9558,1.9558,1.9558,0,1.8848,1.8927,1.8959,1.9015,1.9051,1.9071,1.9126,1.9164,1.9238,1.9263,1.9255,1.9376,1.9416,1.9501,1.9518,1.9544,1.9561,1.9544,1.962,1.9626,1.9632,1.9657,1.9666,1.9558,1.9558,1.9558,1.9558,0,1.8934,1.8989,1.9025,1.9097,1.9137,1.9192,1.9233,1.927,1.9288,1.9319,1.9393,1.9443,1.9508,1.953,1.9547,1.9618,1.9613,1.9612,1.9597,1.9641,1.9664,1.9674,1.9559,1.9559,1.9559,1.9559,0,0,1.8976,1.9066,1.9078,1.9112,1.9181,1.9225,1.9282,1.9346,1.9377,1.9429,1.9479,1.9559,1.956,1.9598,1.962,1.9658,1.971,1.9653,1.9655,1.9662,1.9793,1.9793,1.9803,1.9717,1.9719,1.972,1.9788,0,1.9033,1.9134,1.9166,1.9251,1.9303,1.9325,1.9375,1.9424,1.9456,1.9506,1.9542,1.9599,1.9594,1.9618,1.9656,1.9695,1.9736,1.9691,1.9765,1.9767,1.9749,1.9815,1.9815,1.9877,1.9798,1.9799,1.98,0,1.9112,1.9165,1.9255,1.932,1.9343,1.9387,1.9449,1.9497,1.9553,1.9574,1.9618,1.9638,1.97,1.9683,1.9771,1.9739,1.9771,1.9796,1.9799,1.9807,1.9786,1.9825,1.9897,1.9906,1.9815,1.9814,1.9813,0,1.9134,1.9228,1.9295,1.9323,1.9399,1.943,1.9464,1.9519,1.9556,1.9611,1.9636,1.9698,1.9732,1.978,1.9817,1.9801,1.9902,1.9887,1.9922,1.9921,1.9941,1.994,2.0019,1.9963,1.9962,1.9962,1.9962,0,1.9194,1.9249,1.9306,1.9347,1.941,1.9447,1.9509,1.9544,1.9593,1.9642,1.9666,1.9712,1.9758,1.9811,1.984,1.9909,1.9924,1.9944,1.9951,1.9942,1.9939,1.9963,1.996,1.9965,1.9964,1.9964,1.9963,0,1.9229,1.9269,1.9343,1.941,1.9429,1.9472,1.953,1.9572,1.9605,1.9668,1.9685,1.9738,1.9802,1.9844,1.9925,1.9945,2.0021,2.0027,2.0001,2.0004,2.0037,2.0033,2.0135,2.0151,2.0083,2.0084,2.0084,0,1.9264,1.9306,1.9378,1.9413,1.9446,1.9502,1.954,1.958,1.9619,1.9688,1.9722,1.9787,1.9841,1.9942,1.9989,2.0052,2.006,2.0092,2.007,2.006,2.0061,2.0058,2.0063,2.0095,2.0095,2.0096,2.0096,0,1.9323,1.9341,1.9395,1.9457,1.9502,1.9553,1.9603,1.9631,1.9679,1.9723,1.9788,1.983,1.9914,1.9979,2.0047,2.0083,2.0098,2.0103,2.0114,2.0105,2.0088,2.0098,2.0011,2.01,2.01,2.0099,2.0099,2.0099,1.9359,1.9399,1.9456,1.9516,1.9558,1.9606,1.9649,1.9689,1.9743,1.9814,1.9835,1.9903,1.9962,2.0054,2.0092,2.0147,2.0144,2.016,2.0165,2.0168,2.0168,2.008,2.016,2.016,2.016,2.016,2.016,0,1.9419,1.9458,1.9512,1.9583,1.9631,1.9641,1.9699,1.9738,1.9798,1.9851,1.9904,1.9981,2.0045,2.0097,2.0164,2.0198,2.0207,2.0214,2.0212,2.022,2.0167,2.0151,2.0206,2.0206,2.0206,2.0206,2.0206,2.0206,1.9456,1.9524,1.955,1.964,1.9679,1.9745,1.9778,1.9823,1.9865,1.9949,2.0002,2.0036,2.009,2.0161,2.0221,2.0235,2.0259,2.0264,2.028,2.0229,2.0224,2.0219,2.0204,2.0269,2.0269,2.0329,2.0329,2.033]},{"header":{"parameterUnit":"m.s-1","parameterCategory":1,"la1":30.2991,"la2":30.254,"lo1":-89.0895,"lo2":-89.0444,"dy":0.0017,"dx":0.0017,"nx":28,"ny":28,"refTime":"2024-12-18T09:00:00:Z","depth":0,"parameterNumber":3,"parameterNumberName":"V-component_of_WINDS"},"data":[0,0,0,0,0,0,0,0,0,0,0,0,0,0,0,0,0,0,0,0,0,0,0,0,0,0,0,0,0,0,0,0,0,0,0,0,0,0,0,0,0,0,0,0,0,0,0,0,0,0,0,0,0,0,0,0,0,0,-0.012,-0.0119,0,-0.0091,-0.0091,-0.009,-0.0074,-0.0074,-0.0074,-0.0074,-0.0045,-0.0045,-0.0044,0,0,0,0,0,0,0,0,0,0,0,0,0,-0.0164,-0.0163,-0.012,-0.0119,-0.0119,-0.0091,-0.0091,-0.009,-0.0074,-0.0074,-0.0074,-0.0074,-0.0046,-0.0045,-0.0044,0,0,0,0,0,0,0,0,0,0,0,0,0,-0.0141,-0.0163,-0.012,-0.0107,-0.0106,-0.0091,-0.0091,-0.009,-0.0074,-0.0074,-0.0074,-0.0074,-0.0046,-0.0045,-0.0044,-0.0039,0,0,-0.0041,-0.004,0,0,0,0,0,0,0,0,-0.0142,-0.0139,-0.011,-0.0108,-0.0107,-0.0086,-0.0096,-0.0073,-0.0074,-0.0086,-0.0074,-0.0074,-0.0059,-0.0057,-0.0052,-0.0038,-0.0037,-0.0041,-0.004,-0.004,-0.0039,0,0,0,0,0,0,0,-0.0144,-0.014,-0.0108,-0.0109,-0.0107,-0.0104,-0.0101,-0.0091,-0.0074,-0.0085,-0.0084,-0.0081,-0.0058,-0.0053,-0.0051,-0.0036,-0.0041,-0.004,-0.0039,-0.0039,-0.002,-0.002,0,0,0,0,0,0,-0.0147,-0.0142,-0.0109,-0.0108,-0.0124,-0.0104,-0.01,-0.0093,-0.0074,-0.0071,-0.0081,-0.008,-0.0055,-0.0052,-0.005,-0.0045,-0.004,-0.0039,-0.0038,-0.002,-0.002,-0.002,0,0,0,0,0,0,-0.0148,-0.0144,-0.011,-0.0124,-0.012,-0.0103,-0.0095,-0.0092,-0.0087,-0.007,-0.0067,-0.0078,-0.0054,-0.0051,-0.0043,-0.0044,-0.0038,-0.0037,-0.002,-0.002,-0.002,-0.0034,0,0,0,0,0,0,-0.0149,-0.0145,-0.0142,-0.0124,-0.0119,-0.0103,-0.0095,-0.0092,-0.0085,-0.0083,-0.0067,-0.0064,-0.0054,-0.0044,-0.0042,-0.0042,-0.0036,-0.002,-0.002,-0.002,-0.0033,-0.0034,-0.0035,0,0,0,0,0,-0.0151,-0.0146,-0.0142,-0.0138,-0.0115,-0.0103,-0.01,-0.0088,-0.0085,-0.0083,-0.0073,-0.0065,-0.0044,-0.0043,-0.004,-0.0041,-0.002,-0.002,-0.002,-0.0033,-0.0034,-0.0035,0,0,0,0,0,0,-0.0164,-0.0144,-0.0138,-0.0128,-0.0117,-0.01,-0.0096,-0.0089,-0.0079,-0.0079,-0.0065,-0.0061,-0.0054,-0.0047,-0.0046,-0.0037,-0.0031,-0.0031,-0.0042,-0.0043,-0.0044,-0.0046,-0.0036,0,0,0,0,0,-0.0166,-0.0157,-0.014,-0.0132,-0.0127,-0.0113,-0.0107,-0.0099,-0.0088,-0.0083,-0.0072,-0.0062,-0.0053,-0.0048,-0.0038,-0.0032,-0.0029,-0.0031,-0.0032,-0.0033,-0.0033,-0.0031,-0.0032,-0.0021,-0.0021,-0.0021,0,0,-0.0169,-0.0157,-0.0152,-0.0135,-0.0126,-0.0118,-0.0109,-0.0101,-0.0095,-0.0082,-0.0073,-0.0065,-0.0053,-0.0046,-0.0042,-0.0039,-0.0036,-0.0034,-0.0035,-0.0034,-0.0032,-0.0033,-0.0034,-0.0022,-0.0022,-0.0022,0,0,-0.0172,-0.0161,-0.0154,-0.0146,-0.0132,-0.0123,-0.0122,-0.0106,-0.01,-0.0091,-0.0082,-0.0076,-0.006,-0.0053,-0.0047,-0.0049,-0.0042,-0.0047,-0.0053,-0.0051,-0.0052,-0.0052,-0.0055,-0.0055,-0.0047,-0.0047,-0.0047,0,-0.0178,-0.0164,-0.0152,-0.0145,-0.0138,-0.0126,-0.0121,-0.0113,-0.0097,-0.0094,-0.009,-0.0073,-0.0063,-0.0055,-0.0056,-0.0052,-0.0051,-0.0048,-0.0053,-0.0053,-0.0054,-0.0056,-0.0056,-0.0047,-0.0047,-0.0047,-0.0047,0,-0.0173,-0.0165,-0.0161,-0.0147,-0.014,-0.0134,-0.0122,-0.0116,-0.011,-0.0101,-0.0094,-0.0083,-0.0072,-0.007,-0.0063,-0.0061,-0.006,-0.0055,-0.0049,-0.0056,-0.0057,-0.0058,-0.0048,-0.0048,-0.0048,-0.0048,0,0,-0.0181,-0.0162,-0.0161,-0.0155,-0.0141,-0.0134,-0.0128,-0.0118,-0.0115,-0.0105,-0.01,-0.0089,-0.0085,-0.0078,-0.0071,-0.0069,-0.0074,-0.0064,-0.0064,-0.0068,-0.0074,-0.0078,-0.0079,-0.007,-0.007,-0.007,-0.0075,0,-0.0182,-0.017,-0.016,-0.0152,-0.0145,-0.0135,-0.013,-0.0122,-0.0115,-0.0108,-0.0101,-0.0093,-0.0088,-0.0084,-0.0082,-0.0074,-0.0075,-0.0073,-0.0066,-0.0066,-0.007,-0.008,-0.0084,-0.0089,-0.0076,-0.0076,-0.0076,0,-0.0181,-0.0172,-0.0164,-0.0152,-0.0149,-0.0144,-0.0136,-0.0129,-0.012,-0.0115,-0.0109,-0.0102,-0.0097,-0.0092,-0.0086,-0.0085,-0.0082,-0.0077,-0.0077,-0.0076,-0.0071,-0.008,-0.009,-0.0092,-0.0076,-0.0076,-0.0076,0,-0.0189,-0.0175,-0.0169,-0.0164,-0.015,-0.0148,-0.0142,-0.0132,-0.0128,-0.012,-0.0118,-0.011,-0.0106,-0.01,-0.0092,-0.0089,-0.0087,-0.0081,-0.0084,-0.0084,-0.0083,-0.0084,-0.0095,-0.0081,-0.0081,-0.0081,-0.0081,0,-0.0191,-0.0186,-0.0173,-0.0169,-0.0165,-0.0154,-0.015,-0.0143,-0.0136,-0.0132,-0.0123,-0.0119,-0.0107,-0.0103,-0.0096,-0.0093,-0.0091,-0.0088,-0.0086,-0.0089,-0.0089,-0.0087,-0.0086,-0.0081,-0.0081,-0.0081,-0.0081,0,-0.0199,-0.0189,-0.0182,-0.017,-0.0167,-0.0164,-0.0155,-0.0151,-0.0144,-0.0139,-0.0138,-0.0127,-0.0121,-0.0112,-0.0104,-0.01,-0.0098,-0.0095,-0.0101,-0.01,-0.0104,-0.0104,-0.0113,-0.0115,-0.01,-0.01,-0.01,0,-0.0201,-0.0197,-0.0185,-0.0182,-0.0177,-0.0171,-0.0167,-0.0157,-0.0153,-0.0144,-0.0142,-0.0136,-0.013,-0.0122,-0.0114,-0.0109,-0.0106,-0.011,-0.0105,-0.0108,-0.0107,-0.0108,-0.0108,-0.0111,-0.0111,-0.0111,-0.0111,0,-0.0206,-0.0202,-0.0195,-0.0189,-0.0184,-0.0178,-0.0171,-0.0169,-0.0158,-0.0155,-0.0149,-0.0145,-0.0137,-0.0132,-0.0126,-0.0121,-0.0115,-0.0113,-0.0114,-0.0116,-0.012,-0.0119,-0.0105,-0.0113,-0.0113,-0.0112,-0.0112,-0.0112,-0.0211,-0.0208,-0.02,-0.0194,-0.0189,-0.0184,-0.0181,-0.0174,-0.0169,-0.0162,-0.0157,-0.0153,-0.0146,-0.0137,-0.0132,-0.0129,-0.0126,-0.0127,-0.0127,-0.0127,-0.0129,-0.0121,-0.0128,-0.0128,-0.0128,-0.0128,-0.0128,0,-0.0216,-0.0211,-0.0206,-0.0198,-0.0194,-0.0189,-0.0183,-0.018,-0.0176,-0.017,-0.0165,-0.016,-0.0155,-0.0148,-0.0143,-0.0142,-0.014,-0.0141,-0.0141,-0.0141,-0.0131,-0.0132,-0.0144,-0.0144,-0.0144,-0.0144,-0.0144,-0.0144,-0.0219,-0.0214,-0.021,-0.0204,-0.0199,-0.0194,-0.0191,-0.0187,-0.0183,-0.0177,-0.0174,-0.0169,-0.0163,-0.0158,-0.0154,-0.0152,-0.0151,-0.0154,-0.0151,-0.0143,-0.0141,-0.014,-0.014,-0.0154,-0.0154,-0.0161,-0.0162,-0.0162]}]]